www.pogodaiklimat.ru

Погода и климат >> Архив погоды >> Мексика >> Cuernavaca


ПОГОДА в Cuernavaca

  • Прогноз погоды в Cuernavaca
  • Монитор погоды в Cuernavaca
  • Климат города

АРХИВ ПОГОДЫ в Cuernavaca

Время (UTC), дата Ветер
(напр.,м/с)
 
Видим.   Явления Облачность Т
(С)
Тd
(С)
f
(%)
Тe
(С)
Тes
(С)
Комфортность P
(гПа)
Po
(гПа)
Тmin
(С)
Tmax
(С)
R
(мм)
R24
(мм)
S
(см)
03 13.07 С 1 18 км 10/10 1260 м
[Frnb]
+22.2 +11.9 52 +25 +25 комфорт 1007.3 840.0
06 13.07 З 1 18 км 10/10 1410 м
[Frnb]
+21.0 +9.6 48 +24 +24 комфорт 1009.4 841.5 +14.5 +28.5
12 13.07 З 2 18 км ясно +17.7 +9.2 57 +18 +18 1011.8 841.5 +28.5
15 13.07 З 1 20 км ясно +21.6 +10.2 48 +23 +34 комфорт 1013.4 842.5
18 13.07 ЮЗ 1 20 км ясно +27.0 +12.9 42 +29 +54 опасность
солнечного
удара
1012.6 842.3 +17.4 +27.0
03 15.07 С 1 18 км 8/8 2000 м
[Sc]
+24.3 +6.2 31 +24 +24 комфорт 1008.0 841.0
06 15.07 штиль 0 18 км ясно +20.0 +5.2 38 +20 +20 1011.3 843.0 +17.5 +29.0
09 15.07 штиль 0 18 км ясно +18.0 +4.9 42 +18 +18 1011.0 841.5
12 15.07 штиль 0 18 км ясно +15.0 +6.0 55 +15 +15 1012.2 841.3 +14.5 +29.0
03 16.07 СЗ 1 18 км ясно +23.0 +10.2 44 +25 +25 комфорт 1005.7 839.8
06 16.07 З 2 18 км ясно +20.6 +8.8 47 +23 +23 комфорт 1009.3 842.0 +14.5 +31.0
09 16.07 З 2 18 км ясно +6.6 +6 +6 1009.9 841.2
12 16.07 СЗ 1 18 км 6/6 1500 м
[Frnb]
+18.0 +5.2 43 +19 +19 1012.3 842.0 +17.6 +31.0
15 16.07 Ю 1 20 км ясно +22.0 +7.8 40 +23 +33 комфорт 1014.0 843.0
18 16.07 Ю 1 20 км ясно +28.0 +9.9 32 +28 +54 опасность
солнечного
удара
1012.5 842.5 +17.6 +28.0
21 16.07 Ю 1 20 км ясно +30.0 +10.9 31 +30 +48 жарко 1008.5 840.5
03 17.07 штиль 0 18 км ясно +22.1 +12.5 54 +25 +25 комфорт 1006.8 840.1
06 17.07 штиль 0 18 км слабая морось 9/9 600 м
[Frnb]
+21.0 +13.4 62 +23 +23 комфорт 1010.8 842.8 0.0
09 17.07 штиль 0 18 км 6/6 570 м
[Frnb]
+19.0 +14.3 74 +20 +20 1012.4 842.9
12 17.07 штиль 0 18 км 8/8 500 м
[Frnb]
+18.1 +13.8 76 +18 +18 1012.6 842.1 +17.5 +30.2
15 17.07 Ю 1 20 км ясно +22.3 +14.2 60 +26 +36 жарко 1015.5 844.1
18 17.07 Ю 1 20 км ясно +27.4 +13.6 43 +29 +55 опасность
солнечного
удара
1013.9 843.4 +17.9 +27.4
03 18.07 СЗ 1 18 км 9/9 1350 м
[St]
+22.0 +11.4 51 +24 +24 комфорт 1008.1 841.0
06 18.07 СЗ 1 18 км ясно +20.2 +11.8 58 +23 +23 комфорт 1011.2 843.0 +17.9 +28.8
09 18.07 СЗ 1 18 км ясно +17.2 +11.0 67 +18 +18 1012.7 843.0
12 18.07 СЗ 1 18 км ясно +15.3 +7.8 61 +16 +16 1014.3 843.0 +14.8 +28.8
15 18.07 Ю 1 20 км ясно +23.9 +9.8 41 +25 +35 комфорт 1015.0 843.1
18 18.07 С 1 20 км ясно +29.1 +11.5 34 +30 +55 опасность
солнечного
удара
1013.5 842.6 +14.8 +29.1
21 18.07 Ю 1 20 км ясно +30.3 +9.0 27 +30 +48 жарко 1008.6 840.0
00 19.07 штиль 0 20 км ясно +29.0 +9.3 29 +29 +31 жарко 1004.7 838.5 +14.8 +31.0
03 19.07 штиль 0 18 км ясно +23.1 +9.6 42 +25 +25 комфорт 1004.3 839.0
06 19.07 штиль 0 18 км 8/8 1500 м
[Frnb]
+23.2 +7.8 37 +24 +24 комфорт 1007.2 841.0 +14.8 +31.0
09 19.07 штиль 0 18 км 5/5 1440 м
[St]
+19.0 +7.4 47 +19 +19 1008.5 840.9
12 19.07 штиль 0 18 км 5/5 1500 м
[St]
+18.0 +4.7 41 +18 +18 1009.2 840.0 +17.5 +31.0
15 19.07 ЮЗ 1 20 км ясно +23.0 +8.4 39 +24 +35 комфорт 1011.2 841.0
18 19.07 Ю 1 20 км ясно +28.0 +11.2 35 +29 +54 опасность
солнечного
удара
1010.6 840.8 +17.5 +28.0
21 19.07 Ю 1 20 км ясно +30.3 +10.7 30 +30 +49 жарко 1006.8 838.8

 

Местоположение метеостанции Cuernavaca (Мексика): широта 18.88 долгота -99.23 высота над уровнем моря 1618 м.

В архиве по умолчанию представлена погода в Cuernavaca за последнюю неделю. Архивные данные за месяц целиком и за предыдущие месяцы, начиная с января 2011 года, Вы можете получить, выбрав интересующий диапазон дат из раскрывающегося списка и нажав кнопку "Ввод!".


*Определитесь, кто Вы:
робот инопланетянин человек

Внимание! Время в таблицах - всемирное. Для получения местного времени необходимо прибавить поправку, которая в Cuernavaca равна -6 ч.

Смотрите также архив погоды в соседних городах и на ближайших метеорологических станциях:

Погода в Zacatepec (Мексика) (21 км)
Погода в Institute of Geography (Мексика) (49 км)
Погода в Mexico City (Мексика) (58 км)
Погода в Toluca (Мексика) (65 км)
Погода в Tlaxcala (Мексика) (114 км)
Погода в Puebla (Мексика) (114 км)
Погода в Tlaxcala Airport (Мексика) (115 км)
Погода в Pachuca (Мексика) (148 км)
Погода в Chilpancingo (Мексика) (151 км)
Погода в Tulancingo (Мексика) (161 км)

Пояснения к столбцам:

Ветер - указаны скорость ветра в м/с - средняя за 10 мин, порывы в срок и между сроками (в фигурных скобках) и направление, откуда дует ветер: С - северный, СВ - северо-восточный, В - восточный, ЮВ - юго-восточный, Ю - южный, ЮЗ - юго-западный, З - западный, СЗ - северо-западный.
Видимость - горизонтальная дальность видимости в метрах или километрах. При видимости от 1 до 10 км при отсутствии осадков обычно наблюдается дымка, при ухудшении видимости до 1 км и менее - туман. В сухую погоду видимость может ухудшаться дымом, пылью или мглою.
Явления - указаны атмосферные явления, наблюдавшиеся в срок или в последний час перед сроком; фигурными скобками обозначены явления, наблюдавшиеся между сроками (за 1-3 часа до срока); квадратными скобками обозначены град или гололедные отложения с указанием их диаметра в мм.
Облачность - указаны через наклонную черту общая и нижняя облачность в баллах и высота нижней границы облаков в метрах; квадратными скобками обозначены формы облаков: Ci - перистые, Cs - перисто-слоистые, Cc - перисто-кучевые, Ac - высококучевые, As - высокослоистые, Sc - слоисто-кучевые, Ns - слоисто-дождевые, Cu - кучевые, Cb - кучево-дождевые. Подробнее классификацию облаков см. в Атласе облаков (PDF).
T - Температура воздуха - температура, измеренная на высоте 2 м над землей.
Td - Температура точки росы - температура, при понижении до которой содержащийся в воздухе водяной пар достигнет насыщения.
f - Относительная влажность воздуха - влажноcть воздуха, измеренная на высоте 2 м над землей.
Te - Эффективная температура - температура, которую ощущает одетый по сезону человек в тени. Характеристика душности погоды. При расчете учитывается влияние влажности воздуха и скорости ветра на теплоощущения человека.
Tes - Эффективная температура на солнце - температура, которую ощущает человек, с поправкой на солнечный нагрев. Характеристика знойности погоды. Зависит от высоты солнца над горизонтом, облачности и скорости ветра. Ночью, в пасмурную погоду, а также при ветре 12 м/с и более поправка равна нулю.
P - Атмосферное давление - приведенное к уровню моря атмосферное давление.
Po - Атмосферное давление - измеренное на уровне метеостанции атмосферное давление.
Tmin - Минимальная температура - минимум температуры воздуха на высоте 2 м над землей.
Tmax - Максимальная температура - максимум температуры воздуха на высоте 2 м над землей.
R - Количество осадков - Количество выпавших осадков за период времени, мм. При наведении курсора мыши на число - период времени, за который выпало указанное количество осадков.
R24 - Количество осадков - Количество выпавших осадков за 24 часа, мм.
S - Снежный покров - Высота снежного покрова, см. При наведении курсора мыши на число - состояние снежного покрова и степень покрытия местности в баллах.